Regional Weather Roundup
Issued by NWS New Orleans/Baton Rouge, LA

Home | Current Version | Previous Version | Text Only | Print | Product List | Glossary On
Versions: 1 2 3 4 5 6 7 8 9 10 11 12 13 14 15 16 17 18 19 20 21 22 23 24 25 26 27 28 29 30 31 32 33 34 35 36 37 38 39 40 41 42 43 44 45 46 47 48 49 50
000
ASUS44 KLIX 170414
RWRLIX
NEW ORLEANS REGIONAL WEATHER ROUNDUP
NATIONAL WEATHER SERVICE NEW ORLEANS LA
1100 PM CDT WED AUG 16 2017

NOTE: "FAIR" INDICATES FEW OR NO CLOUDS BELOW 12,000 FEET WITH NO
      SIGNIFICANT WEATHER AND/OR OBSTRUCTIONS TO VISIBILITY.
      SKY/WX - SKY CONDITION AND SIGNIFICANT WEATHER.
      TMP - AIR TEMPERATURE.     DP    - DEWPOINT TEMPERATURE.
      RH  - RELATIVE HUMIDITY.   PRES  - PRESSURE.
      HI  - HEAT INDEX.          WCI   - WIND CHILL INDEX.

*  THESE STATIONS ARE NOT NWS OR FAA STATIONS AND ARE NOT UNDER
   NWS QUALITY CONTROL.

LAZ038-040-048-061>063-065>067-069-170500-
SOUTHEAST LOUISIANA

CITY           SKY/WX    TMP DP  RH WIND       PRES   REMARKS
N.O. INTL ARPT PTCLDY    80  76  87 E3        30.06S
N.O. LAKEFRONT CLEAR     82  76  81 SE5       30.06S
N.O. DOWNTOWN*   N/A     83  76  79 SE5       30.07S
RESERVE*       MOCLDY    80  76  89 CALM      30.06S
SLIDELL        CLEAR     76  73  91 CALM      30.05F
BATON ROUGE    CLEAR     76  75  97 SE7       30.04F
BOOTHVILLE     CLEAR     85  78  80 S6        30.07S HX  96
BELLE CHASSE   PTCLDY    81  78  91 SE3       30.06R
BOGALUSA*        N/A     76  73  88 CALM      30.07F
GALLIANO*      CLEAR     78  74  89 CALM      30.07S
NEW ROADS*       N/A     74  73  98 SE3       30.04F
GONZALES*        N/A     78  76  96 CALM      30.04F
HAMMOND*       CLEAR     77  72  83 CALM      30.05F
HOUMA*         NOT AVBL
PORT FOURCHON* CLEAR     84  75  74 VRB5      30.06S

$$

MSZ070-080>082-170500-
SOUTHERN MISSISSIPPI

CITY           SKY/WX    TMP DP  RH WIND       PRES   REMARKS
MCCOMB         PTCLDY    75  74  96 S5        30.06F
GULFPORT       CLEAR     80  75  84 CALM      30.06S
BILOXI         CLEAR     79  74  85 E6        30.06S
PASCAGOULA     CLEAR     77  74  90 CALM      30.07F

$$

COASTAL OBSERVATIONS
LAKE AND NEARSHORE STATIONS

STATION/POSITION TIME  TEMP    WIND        PRES    WAVE
                       AIR SEA DIR/SP/G            HT/PER
                 (UTC) (F)     (DEG/KT/KT) (MB)    (FT/S)
PASCAGOULA       0348   81      30/  5/  7 1017.9
WAVELAND YACHT   0348   79 87   90/  4/  7 1018.0
GRAND ISLE       0348   85 88  200/  2/  4 1018.4
SOUTHWEST PASS   0348   85     180/  5/  5   N/A
NEW CANAL        0348   80 86  130/  1/  4 1017.7
SHELL BEACH      0348   84 89   80/  4/  5 1018.3

OFFSHORE STATIONS

STATION/POSITION TIME  TEMP    WIND        PRES    WAVE
                       AIR SEA DIR/SP/G            HT/PER
                 (UTC) (F)     (DEG/KT/KT) (MB)    (FT/S)
64 S DAUPHIN ISL 0350   86 88  190/  4/  6 1018.5    1/ 5

$$




USA.gov is the U.S. government's official web portal to all federal, state and local government web resources and services.